Regional Weather Roundup
Issued by NWS Northern Indiana

Home | Current Version | Previous Version | Text Only | Print | Product List | Glossary Off
Versions: 1 2 3 4 5 6 7 8 9 10 11 12 13 14 15 16 17 18 19 20 21 22 23 24 25 26 27 28 29 30 31 32 33 34 35 36 37 38 39 40 41 42 43 44 45 46 47 48 49 50

000
ASUS43 KIWX 072000
RWRIWX

KIWX WEATHER ROUNDUP
NATIONAL WEATHER SERVICE NORTHERN INDIANA
400 PM EDT TUE JUL 07 2015

NOTE: "FAIR" INDICATES FEW OR NO CLOUDS BELOW 12,000 FEET WITH NO
SIGNIFICANT WEATHER AND/OR OBSTRUCTIONS TO VISIBILITY.

* THESE STATIONS ARE NOT UNDER NWS QUALITY CONTROL. THEY ALSO MAY NOT
  REPORT WEATHER SUCH AS PRECIPITATION OR FOG.

INZ001>027-072100-
NORTHERN INDIANA

CITY           SKY/WX    TMP DP  RH WIND       PRES   REMARKS
GARY*          MOSUNNY   64  52  63 N17G32    30.05S
SOUTH BEND     MOSUNNY   69  52  54 N14       30.00R
ELKHART*       SUNNY     70  54  56 NW12G18   29.98R
GOSHEN         CLOUDY    69  60  73 NW12      29.96S
ANGOLA*        CLOUDY    66  57  72 VRB6      29.95R
FORT WAYNE     LGT RAIN  68  65  90 NW13G20   29.94R

$$
INZ028>050-072100-
CENTRAL INDIANA

CITY           SKY/WX    TMP DP  RH WIND       PRES   REMARKS
LAFAYETTE      CLOUDY    67  60  78 N12       29.98R
KOKOMO*        CLOUDY    66  63  88 N14       29.95R
MUNCIE*        RAIN      71  69  93 SW7       29.93S FOG
INDIANAPOLIS   HVY RAIN  72  68  87 E5        29.92S VSB 1

$$
MIZ043>046-050>051-056>058-064>065-071>073-077>080-072100-
SOUTHWEST LOWER MICHIGAN

CITY           SKY/WX    TMP DP  RH WIND       PRES   REMARKS
BATTLE CREEK   CLOUDY    71  58  63 NW7       29.96R
BENTON HARBOR  SUNNY     63  50  62 VRB7G21   30.01R
COLDWATER*     CLOUDY    68  60  75 N9        29.95R
HILLSDALE*     CLOUDY    66  65  94 N9G17     29.95R
HOLLAND        SUNNY     68  51  54 NW15G23   29.99R
GRAND RAPIDS   PTSUNNY   70  55  59 N15       29.96R
KALAMAZOO      CLOUDY    73  57  57 NW7       29.96R
STURGIS*       CLOUDY    70  61  73 NW7       29.95R
THREE RIVERS*  CLOUDY    71  58  64 NW8       29.96R

$$
OHZ001>008-015>018-024>025-072100-
NORTHWEST OHIO

CITY           SKY/WX    TMP DP  RH WIND       PRES   REMARKS
DEFIANCE       LGT RAIN  71  68  90 NW8       29.92R
FINDLAY        LGT RAIN  72  68  87 SW9       29.91F FOG
TOLEDO EXPRESS HVY RAIN  73  71  93 SW8       29.89R FOG
TOLEDO METCALF CLOUDY    75  70  84 SW13      29.90R
LIMA           LGT RAIN  71  71 100 SW5       29.93F

$$
AND FOR LAKE MICHIGAN COASTAL AND OPEN LAKE BUOY OBSERVATIONS

STATION/POSITION TEMP    WIND        PRES    VSBY  WAVE
                 AIR SEA DIR/SP/G                  HT/PER
                 (F)     (DEG/KT/KT) (MB)    (MI)  (FT/S)
CALUMET HARBOR    62     360/ 13/ 19   N/A
MICHIGAN CITY     60     350/ 24/ 28   N/A
BURNS HARBOR      59      10/ 20/ 24 1017.3
SAINT JOSEPH      62     340/ 21/ 27 1016.9R
4 MI NW BRIDGMAN  60 64   30/ 21/ 25   N/A           7/ 2
MICHIGAN CITY     60 65   10/ 17/ 23   N/A           7/ 7
MICHIGAN CITY CG  61 66   30/ 19       N/A       6   6

$$
&&



USA.gov is the U.S. government's official web portal to all federal, state and local government web resources and services.